Vorticity
nan nan nan nan nan nan nan nan nan nan nan nan nan nan nan nan nan nan nan nan nan nan nan nan nan nan nan nan nan nan nan nan nan nan nan nan nan nan nan nan nan nan nan
nan 3 4 7 7 5 4 4 5 6 8 6 5 5 5 5 5 6 5 6 6 6 6 5 4 5 5 4 3 4 5 5 5 6 6 3 7 6 5 2 11 8 nan
nan 6 5 5 7 6 5 4 6 6 5 4 4 6 6 6 6 6 7 8 7 4 4 6 6 5 5 5 4 4 6 6 6 7 8 7 5 5 5 6 6 4 nan
nan 6 8 5 7 6 5 4 4 6 4 6 4 4 5 7 6 4 4 6 8 8 5 4 5 5 5 5 6 7 7 7 7 7 10 9 5 6 7 5 5 6 nan
nan 5 8 7 6 6 7 7 5 5 4 5 5 6 5 5 5 5 5 6 6 6 6 6 6 6 5 4 5 8 7 6 3 11 8 9 8 10 9 10 8 2 nan
nan 5 3 7 9 7 6 6 6 5 6 4 6 7 6 6 6 5 5 6 6 6 6 6 6 6 5 6 7 6 5 5 11 15 7 8 8 7 6 8 8 8 nan
nan 7 2 4 9 8 7 5 7 5 7 7 7 7 7 6 6 6 6 6 6 7 7 7 6 7 7 7 7 6 4 7 17 6 8 6 7 6 6 8 10 9 nan
nan 6 5 4 5 6 5 6 6 6 7 9 9 8 7 6 7 7 7 7 8 8 7 7 7 8 10 9 7 5 4 12 9 2 6 4 6 6 5 7 8 8 nan
nan 6 6 6 4 4 5 8 8 8 5 5 5 7 7 7 8 7 7 7 8 8 7 7 7 9 10 8 6 5 5 10 13 7 4 2 4 5 8 7 4 4 nan
nan 8 6 7 6 6 4 6 9 8 5 6 6 5 4 5 6 5 8 6 8 8 6 7 8 8 8 7 5 4 2 9 6 6 4 7 7 7 6 5 5 5 nan
nan 8 8 8 8 9 8 5 5 5 4 3 5 5 3 5 7 2 3 10 7 7 7 8 6 3 -0 2 4 5 6 8 5 7 6 9 8 8 4 4 4 4 nan
nan 9 7 6 6 6 8 6 4 4 3 3 5 3 5 7 6 7 4 5 5 4 5 6 6 3 0 -1 5 6 10 7 5 7 10 12 7 4 4 5 5 6 nan
nan 4 6 6 7 6 4 3 5 5 6 8 7 6 7 6 6 4 5 5 6 3 3 5 2 3 8 7 7 12 8 6 6 2 8 12 7 5 5 6 7 7 nan
nan 4 4 5 5 5 4 6 6 6 6 7 7 8 5 5 6 5 7 7 6 7 6 4 7 10 8 8 9 8 8 9 8 4 4 8 8 6 6 6 6 7 nan
nan 6 5 4 3 4 4 5 6 7 7 7 8 7 5 7 7 7 6 7 8 8 7 7 8 7 7 7 7 7 7 9 9 6 1 3 7 6 7 6 7 7 nan
nan 8 8 5 6 4 4 5 6 7 8 7 7 8 8 7 6 7 8 7 7 8 8 9 7 7 6 7 8 7 6 7 8 8 3 -2 1 7 7 6 7 8 nan
nan 10 8 7 7 6 4 4 5 7 6 6 8 10 7 5 7 7 8 7 7 9 8 9 8 7 8 7 6 5 6 7 8 8 7 4 -3 -1 5 7 7 8 nan
nan 9 6 8 8 6 6 6 7 8 6 8 8 9 9 7 6 5 6 7 8 8 9 8 8 7 7 7 6 6 6 7 7 6 7 8 7 2 -1 3 7 8 nan
nan 9 9 9 8 8 7 7 9 8 7 8 8 9 10 8 6 6 7 10 8 7 8 8 8 8 7 7 7 7 7 7 6 6 7 7 7 9 7 1 -1 5 nan
nan 9 12 9 11 8 6 7 9 8 9 8 8 10 9 9 8 6 8 9 6 7 8 9 9 8 8 8 7 7 7 7 7 7 5 6 6 7 6 6 5 -1 nan
nan 12 9 10 11 8 7 8 7 8 8 8 10 11 7 9 9 7 7 8 8 9 9 8 9 8 6 7 5 5 6 9 7 6 6 6 5 5 7 8 9 9 nan
nan 14 9 12 16 8 6 9 9 11 11 8 9 10 10 10 9 7 8 9 8 9 11 9 7 6 8 6 4 2 5 4 7 6 6 7 6 6 6 7 9 10 nan
nan 16 16 16 12 11 11 9 9 9 13 13 11 10 11 11 12 12 11 10 11 9 11 10 9 7 6 7 0 1 6 11 6 6 6 7 7 7 7 5 7 8 nan
nan 16 16 15 11 13 12 10 10 10 8 7 9 10 10 10 13 12 12 13 9 10 10 9 9 7 7 8 2 2 10 13 7 9 8 6 7 6 7 7 6 7 nan
nan 12 11 9 10 11 9 8 7 9 9 10 9 6 6 7 5 6 12 11 10 11 12 11 9 7 7 7 7 7 8 4 10 10 10 7 6 7 7 7 7 7 nan
nan nan nan nan nan nan nan nan nan nan nan nan nan nan nan nan nan nan nan nan nan nan nan nan nan nan nan nan nan nan nan nan nan nan nan nan nan nan nan nan nan nan nan
CAPE
950 1528 1950 2398 2471 2340 2307 2360 2424 2529 2670 2760 2723 2676 2561 2454 2346 2190 2118 1986 1690 1448 946 721 776 660 597 453 413 558 528 443 499 681 908 1080 1106 1249 981 862 817 380 688
1228 1597 1788 2299 2408 2367 2383 2378 2405 2487 2568 2429 2481 2388 2257 2112 2088 2188 2199 2076 2093 1707 1403 1115 952 844 490 355 289 412 410 377 554 639 663 897 1138 1135 852 754 961 689 837
1508 1436 1946 2056 2308 2350 2420 2456 2546 2537 2251 2049 2205 2348 2298 2309 2196 2087 1948 2122 2028 1529 1198 976 666 678 530 338 255 381 340 400 629 690 762 900 1132 987 863 911 885 926 879
1288 1256 1678 1758 2099 2232 2206 2334 2472 2456 2432 2365 2341 2221 2078 2073 1637 1459 1296 1368 1236 812 753 702 586 525 436 342 239 307 547 698 774 932 759 825 911 1015 993 1069 1043 1041 915
1198 1270 1539 1670 1920 2210 2219 2263 2335 2188 2250 2041 1791 1840 1691 1589 1377 1125 956 902 847 879 717 591 402 116 12 0 46 575 668 681 847 1253 1089 1243 1262 1104 1182 1057 1174 1043 875
1324 1188 1293 1584 1843 2137 2267 2232 2126 2007 1771 1689 1923 1786 1628 1400 1105 837 731 702 570 431 273 101 2 0 0 0 37 524 533 580 1025 918 1102 1315 1145 1121 1056 883 802 801 762
1369 1214 1608 1546 1739 2106 2334 2221 2034 1875 1604 1644 1737 1658 1329 1105 755 507 306 111 0 0 0 0 0 0 0 0 29 374 278 337 997 1006 1069 1013 1110 939 818 679 721 762 702
1342 1424 1513 1582 1639 1712 1876 1851 1742 1506 1461 1396 1307 1085 802 544 312 52 0 0 0 0 0 0 0 0 0 0 154 53 5 81 606 598 501 559 509 291 305 415 431 270 134
1333 1563 1587 1649 1667 1349 1384 1431 1223 1140 1035 918 767 521 248 57 0 0 0 0 0 0 0 0 0 6 0 7 0 0 0 35 67 152 154 70 48 2 9 139 47 19 8
1614 1575 1672 1474 1516 1683 1936 1071 957 854 698 593 301 61 0 0 0 0 0 0 0 0 0 0 0 2 2 0 0 0 0 0 8 13 24 10 8 6 32 29 26 18 15
1473 1784 1838 1795 1691 1891 1999 1529 899 787 532 256 5 0 0 0 0 0 0 0 0 0 0 0 0 0 0 0 0 0 0 0 0 1 6 7 7 24 28 20 15 10 8
667 1250 1769 1859 1910 1872 1502 1192 818 597 370 174 0 0 0 0 0 0 0 0 0 0 0 0 0 0 0 0 0 0 0 0 0 23 28 29 31 45 29 17 12 13 9
798 570 940 1510 1420 1430 688 568 243 119 28 1 0 0 0 0 0 0 0 0 0 0 0 0 0 0 0 0 0 0 0 0 2 14 32 58 26 23 10 10 8 6 9
1065 1509 941 636 552 638 393 192 1 0 0 0 0 0 0 0 0 0 0 0 0 0 0 0 0 0 0 0 0 0 0 0 3 12 47 14 8 8 10 10 11 12 7
1129 1377 1198 974 640 426 263 18 0 0 0 0 0 0 0 0 0 0 0 0 0 0 0 0 0 0 0 0 0 0 0 1 4 16 31 1 1 5 9 13 11 10 7
1576 1171 999 865 643 550 235 1 0 0 0 0 0 0 0 0 0 0 0 0 0 0 0 0 0 0 0 0 0 0 0 0 0 6 12 4 0 1 7 8 7 8 16
1739 1326 809 919 669 663 519 22 0 0 0 0 0 0 0 0 0 0 0 0 0 0 0 0 0 0 0 0 0 0 0 0 0 3 6 3 0 0 1 2 6 7 17
1604 1351 1259 798 542 531 530 404 112 2 0 0 2 0 0 0 0 0 0 0 0 0 0 0 0 0 0 0 1 0 0 0 3 3 2 0 0 0 0 0 0 4 10
1579 1268 974 1024 517 229 34 2 1 0 0 0 0 0 0 0 0 0 0 0 0 0 0 0 0 0 2 2 2 5 6 5 3 0 0 0 0 0 0 0 0 0 2
1160 1408 632 655 498 59 0 0 0 0 0 0 0 0 0 0 0 0 0 0 0 0 0 0 0 2 6 4 1 5 5 5 3 0 0 0 0 0 0 0 0 0 1
507 1029 690 655 317 9 0 0 0 0 0 0 0 0 0 0 0 0 0 0 0 0 0 0 0 5 9 3 3 6 6 5 1 0 0 0 0 0 0 0 0 0 0
28 482 331 309 76 2 0 0 0 0 0 0 0 0 0 0 0 0 0 0 0 0 0 0 0 7 3 3 1 0 2 2 2 0 0 0 0 0 0 0 0 0 0
14 99 2 17 0 0 0 0 0 0 0 0 0 0 0 0 0 0 0 0 0 0 0 0 0 0 2 2 0 0 1 0 2 5 2 0 0 0 0 0 0 0 0
0 4 5 0 0 0 0 0 0 0 0 0 0 0 0 0 0 0 0 0 0 0 0 0 1 1 0 1 0 0 0 0 0 0 1 2 0 0 0 0 0 0 1
0 2 4 1 1 3 2 0 1 0 1 0 0 0 0 0 0 0 0 0 0 0 0 0 0 1 1 0 0 0 0 0 0 0 0 1 0 0 0 0 0 0 2
2 1 1 3 4 2 0 0 0 0 1 3 4 1 1 5 2 0 0 0 0 0 0 0 0 0 0 0 0 0 0 0 0 0 0 0 1 1 0 0 0 2 5